Terminal Aerodrome Forecast
Issued by NWS Pueblo, CO

Home | Current Version | Previous Version | Text Only | Print | Product List | Glossary On
Versions: 1 2 3 4 5 6 7 8 9 10 11 12 13 14 15 16 17 18 19 20 21 22 23 24 25 26 27 28 29 30 31 32 33 34 35 36 37 38 39 40 41 42 43
000
FTUS45 KPUB 042250 AAA
TAFALS
TAF AMD
KALS 042250Z 0423/0518 33006KT P6SM BKN050
      TEMPO 0423/0501 SCT050
     FM050100 30005KT P6SM FEW060
     FM050400 VRB06KT P6SM SKC=

USA.gov is the U.S. government's official web portal to all federal, state and local government web resources and services.